This demonstration page uses our WeatherBlox Daily Observations layout. Learn more.

Left ArrowRight Arrow

39.92423, -83.80882

Hourly Observations for February 22, 2020

Temp ( °F °C ) Dew Point ( °F °C ) Humidity (%) Winds ( mph kmh ) Pressure ( in mb ) Visibility ( mi km ) Precip ( " mm )
12:56 am 00:56 Clear 27 -2.8 13 -10.6 55 55 SW 14 22 30.44 1031 10 16 N/A
1:56 am 01:56 Clear 25 -3.9 14 -10 63 63 SW 10 17 30.44 1031 10 16 N/A
2:56 am 02:56 Clear 25 -3.9 14 -10 63 63 SW 12 19 30.42 1030 10 16 N/A
3:56 am 03:56 Clear 24 -4.4 14 -10 65 65 SW 9 15 30.42 1030 10 16 N/A
4:56 am 04:56 Clear 23 -5 14 -10 68 68 SW 9 15 30.42 1030 10 16 N/A
5:56 am 05:56 Clear 22 -5.6 14 -10 71 71 SW 7 11 30.43 1031 10 16 N/A
6:56 am 06:56 Clear 22 -5.6 14 -10 71 71 SW 8 13 30.44 1031 10 16 N/A
7:56 am 07:56 Sunny 23 -5 14 -10 68 68 SSW 7 11 30.44 1031 10 16 N/A
8:56 am 08:56 Sunny 27 -2.8 17 -8.3 66 66 SW 9 15 30.45 1031 10 16 N/A
9:56 am 09:56 Sunny 32 undefined 17 -8.3 54 54 SW 12 19 30.43 1030 10 16 N/A
10:56 am 10:56 Sunny 36 2.2 18 -7.8 48 48 SW 10 17 30.41 1030 10 16 N/A
11:56 am 11:56 Sunny 39 3.9 17 -8.3 41 41 WSW 13 20 30.39 1029 10 16 N/A
12:56 pm 12:56 Sunny 42 5.6 19 -7.2 40 40 SSW 12 19 30.36 1028 10 16 N/A
1:56 pm 13:56 Sunny 44 6.7 18 -7.8 35 35 SSW 12 19 30.33 1027 10 16 N/A
2:56 pm 14:56 Sunny 45 7.2 18 -7.8 34 34 SSW 15 24 30.31 1026 10 16 0.01 0.25
3:56 pm 15:56 Sunny 45 7.2 18 -7.8 34 34 SW 14 22 30.30 1026 10 16 N/A
4:56 pm 16:56 Sunny 45 7.2 18 -7.8 34 34 SW 13 20 30.29 1026 10 16 N/A
5:56 pm 17:56 Sunny 42 5.6 18 -7.8 38 38 SW 8 13 30.28 1025 10 16 N/A
6:56 pm 18:56 Clear 38 3.3 17 -8.3 43 43 SSW 5 7 30.29 1026 10 16 N/A
7:56 pm 19:56 Clear 36 2.2 19 -7.2 50 50 SSW 7 11 30.29 1026 10 16 N/A
8:56 pm 20:56 Clear 36 2.2 16 -8.9 44 44 SSW 7 11 30.27 1025 10 16 N/A
9:56 pm 21:56 Clear 35 1.7 17 -8.3 48 48 SW 9 15 30.27 1025 10 16 N/A
10:56 pm 22:56 Clear 34 1.1 16 -8.9 48 48 SSW 7 11 30.27 1025 10 16 N/A
11:56 pm 23:56 Clear 34 1.1 15 -9.4 46 46 S 5 7 30.25 1024 10 16 N/A

Powered by AerisWeather